Content
SEND FEEDBACK

Daily
Averages
Monthly
Summary
India

HYDERABAD, INDIA


Home > Asia > India
Elevation: 1788 feet     Latitude: 17 27N     Longitude: 078 28E

WEATHER
 
SELECT A DAY
Number of Records: 127,988;   Date Range: 12/24/96 - 11/26/14
 
SHARE

PRINT THIS DATA

[ ← Previous Day ]
WEATHER ALMANAC - JUNE 29, 2013
[ Next Day → ]
[ °C ]   °F
We're sorry. There is no daily almanac available for Hyderabad, India on June 29, 2013.
WEATHER BY HOUR - JUNE 29, 2013
[ °C ]   °F
Local TimeTemperatureDewpointHumidityBarometerVisibilityWind DirectionWind SpeedGust SpeedPrecipitationEventsConditions
5:30 AM77.0 °F66.0 °F62 %29.70 in2.0 miWest (270°)3.5 mphHaze
6:10 AM77.0 °F64.4 °F65 %29.83 in3.1 miWest (260°)13.8 mphHaze
7:10 AM77.0 °F64.4 °F65 %29.86 in3.1 miWest (260°)11.5 mphHaze
8:10 AM78.8 °F66.2 °F65 %29.86 in3.1 miWSW (250°)9.2 mph20.7 mphHaze
8:30 AM78.0 °F69.0 °F67 %29.74 in2.0 miWest (270°)5.8 mphHaze
9:10 AM80.6 °F66.2 °F61 %29.86 in3.1 miSW (227°)11.5 mph23.0 mphHaze
10:10 AM80.6 °F66.2 °F61 %29.86 in3.7 miWest (260°)11.5 mph23.0 mphMostly Cloudy
11:10 AM86.0 °F68.0 °F55 %29.83 in3.7 miWest (260°)12.7 mphMostly Cloudy
11:30 AM86.0 °F70.0 °F50 %29.69 in6.0 miWest (270°)6.9 mphMostly Cloudy
12:10 PM86.0 °F66.2 °F51 %29.83 in3.7 miWest (270°)11.5 mph23.0 mphMostly Cloudy
1:10 PM87.8 °F66.2 °F49 %29.80 in3.7 miWNW (290°)9.2 mph20.7 mphMostly Cloudy
1:40 PM89.6 °F66.2 °F46 %29.80 in3.7 miWNW (300°)11.5 mphMostly Cloudy
2:30 PM86.0 °F70.0 °F51 %29.65 in2.0 miWest (270°)4.6 mphRainLight Rain
2:40 PM91.4 °F66.2 °F43 %29.77 in3.7 miWest (280°)119.7 mph23.0 mphPartly Cloudy
3:10 PM0.0 °F0.0 °F29.77 in3.7 miWest (280°)11.5 mph23.0 mphPartly Cloudy
4:10 PM91.4 °F68.0 °F46 %29.74 in3.7 miWNW (290°)11.5 mph23.0 mphScattered Clouds
5:10 PM91.4 °F66.2 °F43 %29.74 in3.7 miWest (280°)11.5 mphMostly Cloudy
5:30 PM88.0 °F68.0 °F43 %29.63 in2.0 miWest (270°)3.5 mphPartly Cloudy
6:10 PM89.6 °F64.4 °F43 %29.77 in3.7 miWNW (290°)9.2 mphMostly Cloudy
7:10 PM87.8 °F64.4 °F46 %29.77 in3.7 miNW (310°)5.8 mphMostly Cloudy
8:30 PM77.0 °F71.0 °F75 %29.71 in2.0 miWest (270°)5.8 mphRainLight Rain
9:10 PM78.8 °F68.0 °F69 %29.83 in3.1 miWSW (250°)8.1 mphRainLight Rain
11:30 PM78.0 °F72.0 °F76 %29.72 in2.0 miSW (230°)4.6 mphHaze
Hourly data recorded from VOHY, located miles away from Hyderabad, India







STORIES FROM OUR PARTNERS